Location: Newark
(1.2833°S, 36.8167°E)
Time: 15:16:02
(UTC+00:00)

X-37B - Visible Passes

Search period start: 29 September 2020 00:00
Search period end: 09 October 2020 00:00
Orbit: 386 x 387 km, 45.0° (Epoch: 18 September)

Date Brightness Start Highest point End Pass type
(mag) Time Alt. Az. Time Alt. Az. Time Alt. Az.
29 Sep 2.8 02:30:42 10° N 02:33:21 25° NE 02:36:02 10° ESE visible
01 Oct 0.6 02:11:51 43° NNW 02:12:45 80° NE 02:15:55 10° SE visible
02 Oct 4.3 01:16:53 10° ESE 01:16:53 10° ESE 01:16:54 10° ESE visible
02 Oct 2.8 02:49:28 10° WSW 02:50:42 12° SW 02:51:57 10° SSW visible
03 Oct 3.0 01:54:07 16° S 01:54:07 16° S 01:55:00 10° SSE visible
